SHT22A EGLL-EGJB

Flight info

Callsign SHT22A
Flight time 0h 34m
Altitude 17000
Route GOGSI2G GOGSI N621 SAM/N0375F180 N63 LELNA DCT
Aircraft A319/M-SDE3FGIJ1KRWXY/LB1

Departure

Time 2026-04-25 13:14
Airport London Heathrow Airport (EGLL)

Arrival

Time 2026-04-25 13:48
Airport Guernsey Airport (EGJB)
Time Latitude Longitude Altitude Speed Heading
2026-04-25 12:23 51.47188 -0.48591 86 ft 0 kts 269°
2026-04-25 12:56 51.47188 -0.48586 86 ft 3 kts 269°
2026-04-25 12:56 51.47188 -0.48543 86 ft 4 kts 269°
2026-04-25 12:56 51.47188 -0.48510 86 ft 4 kts 257°
2026-04-25 12:56 51.47199 -0.48477 89 ft 4 kts 201°
2026-04-25 12:57 51.47223 -0.48473 86 ft 3 kts 179°
2026-04-25 12:57 51.47226 -0.48473 86 ft 0 kts 179°
2026-04-25 13:02 51.47218 -0.48473 89 ft 4 kts 181°
2026-04-25 13:02 51.47177 -0.48473 86 ft 6 kts 179°
2026-04-25 13:02 51.47144 -0.48473 86 ft 0 kts 180°
2026-04-25 13:03 51.47112 -0.48473 86 ft 5 kts 180°
2026-04-25 13:04 51.47069 -0.48472 86 ft 8 kts 179°
2026-04-25 13:04 51.47005 -0.48471 86 ft 12 kts 179°
2026-04-25 13:04 51.46896 -0.48470 86 ft 18 kts 180°
2026-04-25 13:04 51.46767 -0.48469 86 ft 19 kts 180°
2026-04-25 13:05 51.46656 -0.48423 86 ft 16 kts 113°
2026-04-25 13:05 51.46653 -0.48251 86 ft 15 kts 90°
2026-04-25 13:05 51.46653 -0.48086 86 ft 14 kts 90°
2026-04-25 13:05 51.46654 -0.47921 86 ft 15 kts 90°
2026-04-25 13:06 51.46654 -0.47747 86 ft 16 kts 90°
2026-04-25 13:06 51.46655 -0.47548 86 ft 19 kts 89°
2026-04-25 13:06 51.46656 -0.47330 86 ft 21 kts 90°
2026-04-25 13:06 51.46656 -0.47080 89 ft 23 kts 90°
2026-04-25 13:07 51.46657 -0.46814 86 ft 24 kts 90°
2026-04-25 13:07 51.46658 -0.46551 86 ft 23 kts 89°
2026-04-25 13:07 51.46659 -0.46295 89 ft 23 kts 90°
2026-04-25 13:07 51.46660 -0.46041 86 ft 23 kts 90°
2026-04-25 13:08 51.46661 -0.45795 86 ft 22 kts 90°
2026-04-25 13:08 51.46660 -0.45556 87 ft 21 kts 91°
2026-04-25 13:08 51.46663 -0.45317 86 ft 23 kts 90°
2026-04-25 13:08 51.46663 -0.45027 86 ft 29 kts 90°
2026-04-25 13:09 51.46664 -0.44700 87 ft 24 kts 90°
2026-04-25 13:09 51.46665 -0.44416 86 ft 26 kts 90°
2026-04-25 13:09 51.46666 -0.44222 86 ft 6 kts 90°
2026-04-25 13:09 51.46666 -0.44200 86 ft 0 kts 90°
2026-04-25 13:10 51.46666 -0.44196 86 ft 2 kts 90°
2026-04-25 13:10 51.46666 -0.44145 86 ft 7 kts 90°
2026-04-25 13:10 51.46650 -0.44060 87 ft 9 kts 141°
2026-04-25 13:11 51.46614 -0.44053 86 ft 0 kts 180°
2026-04-25 13:12 51.46595 -0.44053 86 ft 7 kts 180°
2026-04-25 13:12 51.46519 -0.44061 87 ft 14 kts 201°
2026-04-25 13:12 51.46496 -0.44098 89 ft 15 kts 242°
2026-04-25 13:13 51.46493 -0.44160 86 ft 0 kts 270°
2026-04-25 13:13 51.46492 -0.44465 88 ft 58 kts 269°
2026-04-25 13:13 51.46489 -0.45445 87 ft 117 kts 270°
2026-04-25 13:14 51.46482 -0.47035 112 ft 165 kts 269°
2026-04-25 13:14 51.46480 -0.48832 778 ft 159 kts 269°
2026-04-25 13:14 51.46474 -0.50618 1363 ft 167 kts 270°
2026-04-25 13:14 51.46459 -0.52617 1650 ft 191 kts 269°
2026-04-25 13:15 51.46425 -0.54894 2011 ft 217 kts 269°
2026-04-25 13:15 51.46385 -0.57453 2513 ft 242 kts 269°
2026-04-25 13:15 51.46345 -0.60258 3206 ft 258 kts 269°
2026-04-25 13:15 51.46167 -0.63148 4172 ft 264 kts 257°
2026-04-25 13:16 51.45745 -0.66021 5234 ft 266 kts 257°
2026-04-25 13:16 51.45482 -0.68978 5757 ft 270 kts 268°
2026-04-25 13:16 51.45427 -0.71978 5953 ft 270 kts 269°
2026-04-25 13:16 51.45389 -0.74976 6014 ft 270 kts 269°
2026-04-25 13:17 51.45319 -0.78015 6719 ft 274 kts 263°
2026-04-25 13:17 51.44769 -0.80943 7589 ft 278 kts 244°
2026-04-25 13:17 51.43605 -0.83446 8040 ft 283 kts 222°
2026-04-25 13:17 51.42065 -0.85415 8184 ft 283 kts 221°
2026-04-25 13:18 51.40542 -0.87392 8215 ft 283 kts 216°
2026-04-25 13:18 51.38934 -0.89204 8220 ft 283 kts 216°
2026-04-25 13:18 51.37314 -0.90984 8323 ft 282 kts 215°
2026-04-25 13:18 51.35685 -0.92752 8577 ft 284 kts 215°
2026-04-25 13:19 51.34055 -0.94547 8966 ft 286 kts 216°
2026-04-25 13:19 51.32972 -0.95746 9537 ft 288 kts 216°
2026-04-25 13:19 51.31306 -0.97592 10051 ft 292 kts 216°
2026-04-25 13:19 51.30174 -0.98844 10161 ft 292 kts 216°
2026-04-25 13:20 51.27910 -1.01321 10450 ft 311 kts 215°
2026-04-25 13:20 51.26036 -1.03294 10729 ft 332 kts 214°
2026-04-25 13:20 51.24063 -1.05322 11361 ft 340 kts 213°
2026-04-25 13:20 51.22059 -1.07366 12132 ft 343 kts 214°
2026-04-25 13:21 51.20040 -1.09422 12904 ft 346 kts 214°
2026-04-25 13:21 51.18005 -1.11500 13674 ft 349 kts 214°
2026-04-25 13:21 51.15955 -1.13600 14397 ft 352 kts 214°
2026-04-25 13:21 51.13890 -1.15721 15055 ft 355 kts 214°
2026-04-25 13:22 51.11808 -1.17859 15718 ft 358 kts 214°
2026-04-25 13:22 51.09705 -1.20019 16373 ft 361 kts 214°
2026-04-25 13:22 51.07581 -1.22199 16974 ft 365 kts 214°
2026-04-25 13:23 51.03303 -1.26585 17216 ft 366 kts 214°
2026-04-25 13:23 51.01162 -1.28769 17221 ft 366 kts 214°
2026-04-25 13:23 50.99021 -1.30943 17218 ft 366 kts 214°
2026-04-25 13:23 50.96875 -1.33120 17221 ft 366 kts 214°
2026-04-25 13:24 50.94685 -1.35179 17220 ft 367 kts 208°
2026-04-25 13:24 50.92411 -1.37006 17222 ft 367 kts 208°
2026-04-25 13:24 50.90133 -1.38828 17220 ft 367 kts 208°
2026-04-25 13:24 50.87856 -1.40642 17220 ft 367 kts 208°
2026-04-25 13:25 50.85574 -1.42456 17217 ft 367 kts 208°
2026-04-25 13:25 50.83296 -1.44267 17220 ft 367 kts 208°
2026-04-25 13:25 50.81017 -1.46080 17219 ft 367 kts 208°
2026-04-25 13:25 50.78736 -1.47891 17219 ft 367 kts 208°
2026-04-25 13:26 50.76453 -1.49700 17220 ft 367 kts 208°
2026-04-25 13:26 50.74174 -1.51506 17220 ft 367 kts 208°
2026-04-25 13:26 50.71896 -1.53312 17220 ft 367 kts 208°
2026-04-25 13:26 50.69615 -1.55118 17220 ft 367 kts 208°
2026-04-25 13:27 50.67332 -1.56923 17221 ft 367 kts 208°
2026-04-25 13:27 50.65052 -1.58726 17219 ft 367 kts 208°
2026-04-25 13:27 50.62803 -1.60499 17215 ft 367 kts 208°
2026-04-25 13:27 50.60521 -1.62294 17220 ft 366 kts 208°
2026-04-25 13:28 50.58215 -1.64110 17224 ft 366 kts 208°
2026-04-25 13:28 50.56703 -1.65304 17223 ft 366 kts 208°
2026-04-25 13:28 50.53692 -1.67679 17222 ft 366 kts 208°
2026-04-25 13:28 50.51410 -1.69470 17223 ft 366 kts 208°
2026-04-25 13:29 50.49128 -1.71256 17222 ft 366 kts 208°
2026-04-25 13:29 50.46850 -1.73038 17222 ft 366 kts 208°
2026-04-25 13:29 50.44569 -1.74821 17223 ft 366 kts 208°
2026-04-25 13:30 50.40012 -1.78377 17219 ft 366 kts 208°
2026-04-25 13:30 50.37729 -1.80162 17223 ft 366 kts 208°
2026-04-25 13:30 50.35446 -1.81944 17223 ft 366 kts 208°
2026-04-25 13:31 50.30887 -1.85490 17219 ft 366 kts 208°
2026-04-25 13:31 50.28604 -1.87259 17220 ft 366 kts 208°
2026-04-25 13:31 50.26326 -1.89023 17220 ft 365 kts 208°
2026-04-25 13:31 50.24048 -1.90789 17219 ft 365 kts 208°
2026-04-25 13:32 50.21772 -1.92552 17218 ft 365 kts 208°
2026-04-25 13:32 50.19494 -1.94310 17218 ft 365 kts 208°
2026-04-25 13:32 50.17213 -1.96067 17212 ft 365 kts 208°
2026-04-25 13:32 50.14935 -1.97825 17218 ft 366 kts 208°
2026-04-25 13:33 50.12652 -1.99585 17212 ft 366 kts 208°
2026-04-25 13:33 50.10370 -2.01343 17212 ft 366 kts 208°
2026-04-25 13:33 50.08091 -2.03097 17211 ft 366 kts 208°
2026-04-25 13:33 50.06578 -2.04261 17212 ft 366 kts 208°
2026-04-25 13:34 50.03525 -2.06599 17209 ft 364 kts 208°
2026-04-25 13:34 50.01287 -2.08310 16965 ft 354 kts 208°
2026-04-25 13:34 49.99151 -2.10158 16500 ft 349 kts 216°
2026-04-25 13:34 49.97271 -2.12490 16002 ft 344 kts 225°
2026-04-25 13:35 49.95650 -2.15196 15495 ft 341 kts 230°
2026-04-25 13:35 49.94087 -2.17944 14997 ft 338 kts 230°
2026-04-25 13:35 49.92531 -2.20665 14491 ft 336 kts 230°
2026-04-25 13:35 49.90976 -2.23373 13986 ft 335 kts 230°
2026-04-25 13:36 49.89434 -2.26054 13456 ft 332 kts 229°
2026-04-25 13:36 49.87896 -2.28726 12954 ft 329 kts 230°
2026-04-25 13:36 49.86378 -2.31364 12436 ft 327 kts 229°
2026-04-25 13:36 49.84869 -2.33989 11903 ft 326 kts 229°
2026-04-25 13:37 49.83365 -2.36613 11399 ft 324 kts 229°
2026-04-25 13:37 49.81872 -2.39213 10924 ft 322 kts 229°
2026-04-25 13:37 49.80386 -2.41788 10441 ft 320 kts 229°
2026-04-25 13:37 49.78904 -2.44350 10084 ft 315 kts 229°
2026-04-25 13:38 49.77473 -2.46821 9955 ft 302 kts 229°
2026-04-25 13:38 49.76095 -2.49201 9824 ft 291 kts 229°
2026-04-25 13:38 49.74760 -2.51499 9553 ft 285 kts 229°
2026-04-25 13:38 49.73440 -2.53762 9096 ft 282 kts 228°
2026-04-25 13:39 49.72130 -2.56009 8627 ft 281 kts 229°
2026-04-25 13:39 49.70824 -2.58240 8186 ft 278 kts 229°
2026-04-25 13:39 49.69523 -2.60442 7750 ft 276 kts 229°
2026-04-25 13:39 49.68227 -2.62617 7299 ft 274 kts 228°
2026-04-25 13:40 49.66940 -2.64784 6862 ft 273 kts 229°
2026-04-25 13:40 49.65663 -2.66944 6414 ft 272 kts 229°
2026-04-25 13:40 49.64393 -2.69086 5971 ft 270 kts 229°
2026-04-25 13:40 49.63123 -2.71200 5522 ft 268 kts 229°
2026-04-25 13:41 49.61850 -2.73301 5084 ft 267 kts 229°
2026-04-25 13:41 49.60593 -2.75384 4662 ft 264 kts 229°
2026-04-25 13:41 49.59364 -2.77426 4243 ft 262 kts 228°
2026-04-25 13:41 49.58121 -2.79522 3800 ft 261 kts 228°
2026-04-25 13:42 49.56932 -2.81544 3552 ft 252 kts 228°
2026-04-25 13:42 49.55790 -2.83497 3422 ft 239 kts 229°
2026-04-25 13:42 49.54611 -2.85173 3288 ft 225 kts 208°
2026-04-25 13:42 49.53146 -2.85751 3157 ft 215 kts 184°
2026-04-25 13:43 49.51682 -2.85814 3024 ft 205 kts 180°
2026-04-25 13:43 49.50298 -2.85832 2908 ft 194 kts 180°
2026-04-25 13:43 49.48961 -2.85851 2671 ft 191 kts 180°
2026-04-25 13:43 49.47654 -2.85646 2442 ft 186 kts 165°
2026-04-25 13:44 49.46437 -2.85047 2153 ft 183 kts 161°
2026-04-25 13:44 49.45242 -2.84405 2030 ft 182 kts 160°
2026-04-25 13:44 49.44141 -2.83438 2036 ft 184 kts 140°
2026-04-25 13:44 49.43344 -2.81915 2037 ft 184 kts 118°
2026-04-25 13:45 49.42966 -2.80041 2013 ft 185 kts 97°
2026-04-25 13:45 49.42982 -2.78151 2005 ft 172 kts 88°
2026-04-25 13:45 49.43035 -2.76339 2007 ft 168 kts 88°
2026-04-25 13:45 49.43087 -2.74552 1923 ft 166 kts 88°
2026-04-25 13:46 49.43138 -2.72788 1743 ft 165 kts 88°
2026-04-25 13:46 49.43188 -2.71045 1544 ft 162 kts 88°
2026-04-25 13:46 49.43237 -2.69337 1342 ft 158 kts 88°
2026-04-25 13:46 49.43282 -2.67759 1134 ft 138 kts 88°
2026-04-25 13:47 49.43324 -2.66325 958 ft 131 kts 87°
2026-04-25 13:47 49.43365 -2.64942 789 ft 129 kts 86°
2026-04-25 13:47 49.43404 -2.63582 628 ft 126 kts 86°
2026-04-25 13:47 49.43444 -2.62239 435 ft 125 kts 86°
2026-04-25 13:48 49.43478 -2.60910 314 ft 119 kts 87°
2026-04-25 13:48 49.43503 -2.59964 321 ft 47 kts 87°
2026-04-25 13:48 49.43513 -2.59627 326 ft 30 kts 88°
2026-04-25 13:48 49.43522 -2.59300 334 ft 27 kts 87°
2026-04-25 13:49 49.43444 -2.59199 333 ft 13 kts 178°
2026-04-25 13:49 49.43372 -2.59264 331 ft 14 kts 260°
2026-04-25 13:49 49.43372 -2.59283 332 ft 0 kts 268°
2026-04-25 13:50 49.43372 -2.59294 332 ft 3 kts 268°
2026-04-25 13:50 49.43370 -2.59337 331 ft 6 kts 267°
2026-04-25 13:50 49.43368 -2.59413 330 ft 8 kts 267°
2026-04-25 13:50 49.43367 -2.59458 327 ft 0 kts 267°
2026-04-25 13:51 49.43367 -2.59459 327 ft 0 kts 267°
2026-04-25 13:51 49.43366 -2.59467 328 ft 3 kts 267°
2026-04-25 13:51 49.43365 -2.59514 329 ft 6 kts 266°
2026-04-25 13:51 49.43363 -2.59563 328 ft 0 kts 267°
2026-04-25 13:52 49.43363 -2.59583 327 ft 4 kts 266°
2026-04-25 13:52 49.43360 -2.59644 327 ft 7 kts 266°
2026-04-25 13:52 49.43318 -2.59690 326 ft 9 kts 180°
2026-04-25 13:52 49.43296 -2.59688 326 ft 2 kts 178°
2026-04-25 13:53 49.43275 -2.59687 326 ft 4 kts 178°
2026-04-25 13:53 49.43255 -2.59686 326 ft 2 kts 177°
2026-04-25 13:53 49.43252 -2.59685 326 ft 0 kts 177°